Overview Statistics Trail Chart Weather Telemetry Raw packets
 

This is the latest recevied weather packets stored in our database for station/object SQ6ILB-11. If no packets are shown the sender has not sent any weather packets the latest 10 day(s).

<< 10 11 12 13 14 15 16 >>
Time Temp. Humidity Pressure Rain* Wind** Luminosity Snow
1788345671 19.44° C 65% 992.5 hPa - - - -
1788344771 18.89° C 64% 992.8 hPa - - - -
1788343871 18.89° C 66% 992.9 hPa - - - -
1788342971 18.33° C 67% 993 hPa - - - -
1788342071 17.78° C 66% 992.8 hPa - - - -
1788341171 17.78° C 68% 992.9 hPa - - - -
1788340271 17.78° C 69% 993 hPa - - - -
1788339370 17.22° C 69% 993.1 hPa - - - -
1788338470 16.67° C 70% 993.1 hPa - - - -
1788337570 16.67° C 71% 992.9 hPa - - - -
1788336670 16.11° C 69% 992.8 hPa - - - -
1788335770 16.11° C 73% 993 hPa - - - -
1788334870 15.56° C 74% 993.1 hPa - - - -
1788333970 15.56° C 72% 993.2 hPa - - - -
1788333069 15° C 75% 993 hPa - - - -
1788332169 15° C 73% 992.9 hPa - - - -
1788331269 14.44° C 72% 993 hPa - - - -
1788330369 13.89° C 67% 992.8 hPa - - - -
1788329469 13.89° C 66% 992.7 hPa - - - -
1788328569 13.89° C 65% 992.7 hPa - - - -
1788327669 13.89° C 66% 992.6 hPa - - - -
1788326768 13.89° C 65% 992.6 hPa - - - -
1788325888 13.89° C 65% 992.6 hPa - - - -
1788324968 13.89° C 65% 992.5 hPa - - - -
1788324068 14.44° C 66% 992.1 hPa - - - -

* Rain since midnight (hover to see other rain measurements)
** Current wind speed in m/s (hover to see current wind gust speed)